This is the latest recevied weather packets stored in our database for station/object VK4AB-13. If no packets are shown the sender has not sent any weather packets the latest 10 day(s).
| Time | Temp. | Humidity | Pressure | Rain* | Wind** | Luminosity | Snow |
|---|---|---|---|---|---|---|---|
| 1777780131 | 27.22° C | 54% | 1018 hPa | 0 mm | - | 619 W/m² | - |
| 1777779881 | 26.67° C | 55% | 1018 hPa | 0 mm | - | 631 W/m² | - |
| 1777779831 | 26.67° C | 55% | 1018 hPa | 0 mm | - | 631 W/m² | - |
| 1777779531 | 26.67° C | 55% | 1018 hPa | 0 mm | - | 650 W/m² | - |
| 1777779391 | 26.67° C | 56% | 1018 hPa | 0 mm | - | 656 W/m² | - |
| 1777779231 | 26.67° C | 56% | 1018 hPa | 0 mm | - | 656 W/m² | - |
| 1777778974 | 27.22° C | 55% | 1018 hPa | 0 mm | - | 752 W/m² | - |
| 1777778931 | 26.67° C | 55% | 1018.1 hPa | 0 mm | - | 657 W/m² | - |
| 1777778631 | 27.22° C | 55% | 1018 hPa | 0 mm | - | 752 W/m² | - |
| 1777778331 | 27.22° C | 55% | 1018 hPa | 0 mm | - | 705 W/m² | - |
| 1777778031 | 26.67° C | 55% | 1018.1 hPa | 0 mm | - | 675 W/m² | - |
| 1777777731 | 26.67° C | 56% | 1018.2 hPa | 0 mm | - | 663 W/m² | - |
| 1777777431 | 26.11° C | 57% | 1018.3 hPa | 0 mm | - | 649 W/m² | - |
| 1777777181 | 26.67° C | 58% | 1018.3 hPa | 0 mm | - | 229 W/m² | - |
| 1777777181 | 27.22° C | 59% | 1018.4 hPa | 0 mm | - | 104 W/m² | - |
| 1777777131 | 26.67° C | 58% | 1018.3 hPa | 0 mm | - | 229 W/m² | - |
| 1777776831 | 27.22° C | 59% | 1018.4 hPa | 0 mm | - | 104 W/m² | - |
| 1777776531 | 27.22° C | 57% | 1018.4 hPa | 0 mm | - | 733 W/m² | - |
| 1777776231 | 27.22° C | 58% | 1018.5 hPa | 0 mm | - | 766 W/m² | - |
| 1777775931 | 27.22° C | 57% | 1018.6 hPa | 0 mm | - | 775 W/m² | - |
| 1777775631 | 27.22° C | 60% | 1018.7 hPa | 0 mm | - | 849 W/m² | - |
| 1777775556 | 26.67° C | 58% | 1018.7 hPa | 0 mm | - | 812 W/m² | - |
| 1777775331 | 26.67° C | 58% | 1018.7 hPa | 0 mm | - | 812 W/m² | - |
| 1777775031 | 26.67° C | 60% | 1018.8 hPa | 0 mm | - | 649 W/m² | - |
| 1777774731 | 26.11° C | 61% | 1018.9 hPa | 0 mm | - | 679 W/m² | - |
* Rain latest hour (hover to see other rain measurements)
** Current wind speed in m/s (hover to see current wind gust speed)